Weather History for Madison, MN

Change the Weather History Date:

Wednesday, July 10, 2013

  Actual Average (KAQP) Record (KAQP)
Temperature  
Mean Temperature 66 °F -  
Max Temperature 77 °F 80 °F 89 °F (2011)
Min Temperature 55 °F 59 °F 50 °F (2006)
Cooling Degree Days 1    
Growing Degree Days 16 (Base 50)    
Moisture  
Dew Point 55 °F    
Average Humidity 67    
Maximum Humidity 94    
Minimum Humidity 41    
Precipitation  
Precipitation 0.00 in - - ()
Sea Level Pressure  
Sea Level Pressure 30.08 in    
Wind  
Wind Speed 5 mph (NW)    
Max Wind Speed 9 mph    
Max Gust Speed -    
Visibility 10 miles    
Events      
Averages and records for this station are not official NWS values.
T = Trace of Precipitation, MM = Missing Value Source: NWS Daily Summary

Daily Weather History Graph

Daily Weather History Graph

Search for Another Location

Airport:

Trip Planner

Search our weather history database for the weather conditions in past years. The results will help you decide how hot, cold, wet, or windy it might be!

Date:

Astronomy

Jul. 10, 2013 Rise Set
Actual Time 5:48 AM CDT 9:11 PM CDT
Civil Twilight 5:11 AM CDT 9:47 PM CDT
Nautical Twilight 4:24 AM CDT 10:35 PM CDT
Astronomical Twilight 3:23 AM CDT 11:35 PM CDT
Moon 8:18 AM CDT (7/10) 10:11 PM CDT (7/10)
Length of Visible Light 16h 35m
Length of Day
15h 23m
Waxing Crescent, 5% of the Moon is Illuminated
Jul 10
Waxing Crescent
Jul 15
First Quarter
Jul 22
Full
Jul 29
Last Quarter
Aug 6
New

Hourly Weather History & Observations

Time (CDT) Temp. Dew Point Humidity Pressure Visibility Wind Dir Wind Speed Gust Speed Precip Events Conditions
12:14 AM 64.4 °F 59.0 °F 83% 30.04 in 10.0 mi NNW 6.9 mph - N/A   Clear
12:33 AM 64.4 °F 57.2 °F 77% 30.05 in 10.0 mi North 6.9 mph - N/A   Clear
12:54 AM 62.6 °F 57.2 °F 82% 30.05 in 10.0 mi NNW 5.8 mph - N/A   Clear
1:14 AM 62.6 °F 57.2 °F 82% 30.05 in 10.0 mi NNW 5.8 mph - N/A   Clear
1:33 AM 62.6 °F 57.2 °F 82% 30.05 in 10.0 mi NW 4.6 mph - N/A   Scattered Clouds
1:54 AM 60.8 °F 57.2 °F 88% 30.06 in 10.0 mi Calm Calm - N/A   Scattered Clouds
2:14 AM 60.8 °F 55.4 °F 82% 30.06 in 10.0 mi NW 5.8 mph - N/A   Clear
2:34 AM 60.8 °F 55.4 °F 82% 30.07 in 10.0 mi NNW 5.8 mph - N/A   Clear
2:54 AM 60.8 °F 55.4 °F 82% 30.07 in 10.0 mi NW 5.8 mph - N/A   Clear
3:11 AM 60.8 °F 55.4 °F 82% 30.07 in 10.0 mi NNW 8.1 mph - N/A   Clear
3:34 AM 60.8 °F 55.4 °F 82% 30.08 in 10.0 mi NW 6.9 mph - N/A   Clear
3:54 AM 60.8 °F 55.4 °F 82% 30.08 in 10.0 mi NNW 6.9 mph - N/A   Clear
4:13 AM 60.8 °F 55.4 °F 82% 30.09 in 10.0 mi NW 5.8 mph - N/A   Clear
4:34 AM 59.0 °F 55.4 °F 88% 30.09 in 10.0 mi NW 5.8 mph - N/A   Clear
4:53 AM 57.2 °F 55.4 °F 94% 30.09 in 10.0 mi NW 5.8 mph - N/A   Clear
5:14 AM 57.2 °F 55.4 °F 94% 30.09 in 10.0 mi NNW 5.8 mph - N/A   Clear
5:25 AM 57.2 °F 53.6 °F 88% 30.09 in 10.0 mi NNW 5.8 mph - N/A   Clear
5:53 AM 55.4 °F 53.6 °F 94% 30.10 in 7.0 mi West 5.8 mph - N/A   Clear
6:14 AM 55.4 °F 53.6 °F 94% 30.11 in 7.0 mi WNW 5.8 mph - N/A   Clear
6:34 AM 57.2 °F 53.6 °F 88% 30.11 in 5.0 mi West 5.8 mph - N/A   Clear
6:53 AM 57.2 °F 53.6 °F 88% 30.12 in 4.0 mi West 5.8 mph - N/A   Clear
7:14 AM 57.2 °F 55.4 °F 94% 30.12 in 7.0 mi West 4.6 mph - N/A   Clear
7:34 AM 59.0 °F 55.4 °F 88% 30.12 in 10.0 mi WNW 6.9 mph - N/A   Clear
7:53 AM 60.8 °F 55.4 °F 82% 30.12 in 10.0 mi NW 6.9 mph - N/A   Clear
8:14 AM 62.6 °F 55.4 °F 77% 30.12 in 10.0 mi NW 4.6 mph - N/A   Clear
8:34 AM 62.6 °F 57.2 °F 82% 30.12 in 10.0 mi NW 5.8 mph - N/A   Clear
8:53 AM 64.4 °F 57.2 °F 77% 30.13 in 10.0 mi WNW 5.8 mph - N/A   Clear
9:14 AM 66.2 °F 57.2 °F 73% 30.13 in 10.0 mi West 4.6 mph - N/A   Clear
9:34 AM 66.2 °F 55.4 °F 68% 30.13 in 10.0 mi NW 5.8 mph - N/A   Clear
9:53 AM 66.2 °F 55.4 °F 68% 30.12 in 10.0 mi NW 5.8 mph - N/A   Clear
10:14 AM 69.8 °F 55.4 °F 60% 30.12 in 10.0 mi North 5.8 mph - N/A   Clear
10:33 AM 69.8 °F 55.4 °F 60% 30.12 in 10.0 mi North 8.1 mph - N/A   Clear
10:53 AM 69.8 °F 55.4 °F 60% 30.12 in 10.0 mi NNW 9.2 mph - N/A   Clear
11:14 AM 71.6 °F 55.4 °F 57% 30.12 in 10.0 mi North 5.8 mph - N/A   Clear
11:34 AM 71.6 °F 55.4 °F 57% 30.12 in 10.0 mi NNW 9.2 mph - N/A   Clear
11:53 AM 71.6 °F 53.6 °F 53% 30.12 in 10.0 mi NNW 5.8 mph - N/A   Clear
12:14 PM 73.4 °F 53.6 °F 50% 30.12 in 10.0 mi NNW 4.6 mph - N/A   Clear
12:34 PM 73.4 °F 53.6 °F 50% 30.11 in 10.0 mi NW 6.9 mph - N/A   Clear
12:53 PM 73.4 °F 55.4 °F 53% 30.10 in 10.0 mi NNW 8.1 mph - N/A   Clear
1:14 PM 73.4 °F 53.6 °F 50% 30.10 in 10.0 mi NNW 6.9 mph - N/A   Clear
1:34 PM 73.4 °F 53.6 °F 50% 30.10 in 10.0 mi NNW 5.8 mph - N/A   Clear
1:53 PM 73.4 °F 53.6 °F 50% 30.10 in 10.0 mi NW 4.6 mph - N/A   Clear
2:14 PM 75.2 °F 53.6 °F 47% 30.09 in 10.0 mi NW 6.9 mph - N/A   Clear
2:33 PM 75.2 °F 53.6 °F 47% 30.08 in 10.0 mi NNW 6.9 mph - N/A   Clear
2:54 PM 75.2 °F 53.6 °F 47% 30.08 in 10.0 mi NW 4.6 mph - N/A   Clear
3:14 PM 75.2 °F 51.8 °F 44% 30.08 in 10.0 mi West 3.5 mph - N/A   Clear
3:33 PM 75.2 °F 53.6 °F 47% 30.08 in 10.0 mi Calm Calm - N/A   Clear
3:54 PM 75.2 °F 53.6 °F 47% 30.07 in 10.0 mi Calm Calm - N/A   Clear
4:13 PM 77.0 °F 53.6 °F 44% 30.07 in 10.0 mi NW 5.8 mph - N/A   Clear
4:34 PM 77.0 °F 51.8 °F 41% 30.06 in 10.0 mi Calm Calm - N/A   Clear
4:54 PM 77.0 °F 51.8 °F 41% 30.05 in 10.0 mi Calm Calm - N/A   Clear
5:13 PM 77.0 °F 51.8 °F 41% 30.05 in 10.0 mi Calm Calm - N/A   Clear
5:34 PM 77.0 °F 51.8 °F 41% 30.05 in 10.0 mi Calm Calm - N/A   Clear
5:54 PM 77.0 °F 55.4 °F 47% 30.04 in 10.0 mi Calm Calm - N/A   Clear
6:13 PM 75.2 °F 55.4 °F 50% 30.03 in 10.0 mi Calm Calm - N/A   Clear
6:33 PM 75.2 °F 53.6 °F 47% 30.03 in 10.0 mi Calm Calm - N/A   Clear
6:54 PM 75.2 °F 53.6 °F 47% 30.04 in 10.0 mi Calm Calm - N/A   Clear
7:13 PM 75.2 °F 57.2 °F 53% 30.03 in 10.0 mi Calm Calm - N/A   Clear
7:33 PM 75.2 °F 57.2 °F 53% 30.03 in 10.0 mi Calm Calm - N/A   Clear
7:54 PM 73.4 °F 57.2 °F 57% 30.03 in 10.0 mi ESE 3.5 mph - N/A   Clear
8:13 PM 73.4 °F 57.2 °F 57% 30.03 in 10.0 mi Calm Calm - N/A   Clear
8:33 PM 71.6 °F 57.2 °F 60% 30.03 in 7.0 mi Calm Calm - N/A   Clear
8:54 PM 69.8 °F 59.0 °F 68% 30.03 in 10.0 mi East 5.8 mph - N/A   Clear
9:13 PM 68.0 °F 57.2 °F 68% 30.04 in 10.0 mi East 4.6 mph - N/A   Clear
9:33 PM 66.2 °F 57.2 °F 73% 30.05 in 10.0 mi East 4.6 mph - N/A   Clear
9:54 PM 66.2 °F 57.2 °F 73% 30.05 in 10.0 mi East 5.8 mph - N/A   Clear
10:13 PM 64.4 °F 57.2 °F 77% 30.06 in 10.0 mi East 4.6 mph - N/A   Clear
10:33 PM 64.4 °F 57.2 °F 77% 30.06 in 10.0 mi ESE 4.6 mph - N/A   Clear
10:54 PM 64.4 °F 57.2 °F 77% 30.06 in 10.0 mi Calm Calm - N/A   Clear
11:13 PM 66.2 °F 57.2 °F 73% 30.06 in 10.0 mi Calm Calm - N/A   Clear
11:33 PM 64.4 °F 57.2 °F 77% 30.06 in 10.0 mi Calm Calm - N/A   Clear
11:54 PM 64.4 °F 57.2 °F 77% 30.06 in 10.0 mi Calm Calm - N/A   Clear